Time,TemperatureF,DewpointF,PressureIn,WindDirection,WindDirectionDegrees,WindSpeedMPH,WindSpeedGustMPH,Humidity,HourlyPrecipIn,Conditions,Clouds,dailyrainin,SoftwareType,DateUTC
2013-03-24 00:02:00,27.0,26.0,30.11,NNE,17,3.0,11.0,94,0.00,,,0.00,,2013-03-24 05:02:00,
2013-03-24 00:12:00,27.0,26.0,30.11,NNE,17,3.0,11.0,94,0.00,,,0.00,,2013-03-24 05:12:00,
2013-03-24 00:22:00,27.0,26.0,30.12,NNW,340,5.0,11.0,95,0.00,,,0.00,,2013-03-24 05:22:00,
2013-03-24 00:32:00,27.0,26.0,30.11,NNE,12,5.0,9.0,95,0.00,,,0.00,,2013-03-24 05:32:00,
2013-03-24 00:42:00,27.0,26.0,30.11,NNE,12,5.0,9.0,95,0.00,,,0.00,,2013-03-24 05:42:00,
2013-03-24 00:52:00,27.0,26.0,30.11,North,355,5.0,10.0,94,0.00,,,0.00,,2013-03-24 05:52:00,
2013-03-24 01:02:00,28.0,27.0,30.11,North,9,5.0,12.0,95,0.00,,,0.00,,2013-03-24 06:02:00,
2013-03-24 01:12:00,28.0,27.0,30.11,North,9,5.0,12.0,95,0.00,,,0.00,,2013-03-24 06:12:00,
2013-03-24 01:22:00,28.0,27.0,30.11,North,355,5.0,16.0,95,0.00,,,0.00,,2013-03-24 06:22:00,
2013-03-24 01:32:00,27.0,26.0,30.11,North,9,7.0,15.0,94,0.00,,,0.00,,2013-03-24 06:32:00,
2013-03-24 01:42:00,27.0,26.0,30.11,North,9,7.0,15.0,94,0.00,,,0.00,,2013-03-24 06:42:00,
2013-03-24 01:52:00,27.0,26.0,30.11,NW,326,7.0,14.0,94,0.00,,,0.00,,2013-03-24 06:52:00,
2013-03-24 02:02:00,27.0,26.0,30.11,NNW,340,11.0,19.0,95,0.00,,,0.00,,2013-03-24 07:02:00,
2013-03-24 02:12:00,27.0,26.0,30.11,NNW,340,11.0,19.0,95,0.00,,,0.00,,2013-03-24 07:12:00,
2013-03-24 02:22:00,27.0,26.0,30.10,NW,315,6.0,14.0,95,0.00,,,0.00,,2013-03-24 07:22:00,
2013-03-24 02:32:00,26.0,25.0,30.10,NNE,16,6.0,17.0,94,0.00,,,0.00,,2013-03-24 07:32:00,
2013-03-24 02:42:00,26.0,25.0,30.10,NNE,16,6.0,17.0,94,0.00,,,0.00,,2013-03-24 07:42:00,
2013-03-24 02:52:00,26.0,25.0,30.10,NNW,348,8.0,14.0,94,0.00,,,0.00,,2013-03-24 07:52:00,
2013-03-24 03:03:00,26.0,25.0,30.10,NNW,346,7.0,14.0,94,0.00,,,0.00,,2013-03-24 08:03:00,
2013-03-24 03:12:00,26.0,25.0,30.10,NNW,346,7.0,14.0,94,0.00,,,0.00,,2013-03-24 08:12:00,
2013-03-24 03:22:00,26.0,25.0,30.10,NW,319,8.0,17.0,94,0.00,,,0.00,,2013-03-24 08:22:00,
2013-03-24 03:32:00,26.0,25.0,30.10,NW,319,8.0,17.0,94,0.00,,,0.00,,2013-03-24 08:32:00,
2013-03-24 03:42:00,26.0,25.0,30.10,NW,319,8.0,17.0,94,0.00,,,0.00,,2013-03-24 08:42:00,
2013-03-24 03:52:00,26.0,25.0,30.10,NNW,338,9.0,18.0,94,0.00,,,0.00,,2013-03-24 08:52:00,
2013-03-24 04:02:00,25.0,24.0,30.09,North,355,12.0,21.0,94,0.00,,,0.00,,2013-03-24 09:02:00,
2013-03-24 04:12:00,25.0,24.0,30.09,North,355,12.0,21.0,94,0.00,,,0.00,,2013-03-24 09:12:00,
2013-03-24 04:22:00,25.0,23.0,30.09,NNE,23,8.0,17.0,93,0.00,,,0.00,,2013-03-24 09:22:00,
2013-03-24 04:33:00,24.0,22.0,30.09,NNW,337,9.0,18.0,93,0.00,,,0.00,,2013-03-24 09:33:00,
2013-03-24 04:42:00,24.0,22.0,30.09,NNW,337,9.0,18.0,93,0.00,,,0.00,,2013-03-24 09:42:00,
2013-03-24 04:52:00,24.0,22.0,30.09,NNW,338,7.0,16.0,93,0.00,,,0.00,,2013-03-24 09:52:00,
2013-03-24 05:03:00,24.0,22.0,30.09,North,355,7.0,19.0,92,0.00,,,0.00,,2013-03-24 10:03:00,
2013-03-24 05:12:00,24.0,22.0,30.09,North,355,7.0,19.0,92,0.00,,,0.00,,2013-03-24 10:12:00,
2013-03-24 05:22:00,24.0,22.0,30.09,North,360,6.0,14.0,93,0.00,,,0.00,,2013-03-24 10:22:00,
2013-03-24 05:32:00,23.0,21.0,30.08,North,5,6.0,15.0,93,0.00,,,0.00,,2013-03-24 10:32:00,
2013-03-24 05:42:00,23.0,21.0,30.08,North,5,6.0,15.0,93,0.00,,,0.00,,2013-03-24 10:42:00,
2013-03-24 05:52:00,23.0,21.0,30.08,NNE,22,7.0,15.0,93,0.00,,,0.00,,2013-03-24 10:52:00,
2013-03-24 06:03:00,23.0,21.0,30.09,NNE,13,7.0,14.0,93,0.00,,,0.00,,2013-03-24 11:03:00,
2013-03-24 06:12:00,23.0,21.0,30.09,NNE,13,7.0,14.0,93,0.00,,,0.00,,2013-03-24 11:12:00,
2013-03-24 06:22:00,24.0,23.0,30.09,North,350,5.0,15.0,94,0.00,,,0.00,,2013-03-24 11:22:00,
2013-03-24 06:32:00,24.0,22.0,30.08,North,360,8.0,13.0,93,0.00,,,0.00,,2013-03-24 11:32:00,
2013-03-24 06:42:00,24.0,22.0,30.08,North,360,8.0,13.0,93,0.00,,,0.00,,2013-03-24 11:42:00,
2013-03-24 06:52:00,24.0,22.0,30.09,NW,314,4.0,15.0,93,0.00,,,0.00,,2013-03-24 11:52:00,
2013-03-24 07:02:00,24.0,22.0,30.09,NNE,21,4.0,13.0,93,0.00,,,0.00,,2013-03-24 12:02:00,
2013-03-24 07:12:00,24.0,22.0,30.09,NNE,21,4.0,13.0,93,0.00,,,0.00,,2013-03-24 12:12:00,
2013-03-24 07:22:00,24.0,22.0,30.09,North,9,7.0,11.0,93,0.00,,,0.00,,2013-03-24 12:22:00,
2013-03-24 07:32:00,24.0,22.0,30.08,NW,323,3.0,13.0,93,0.00,,,0.00,,2013-03-24 12:32:00,
2013-03-24 07:42:00,24.0,22.0,30.08,NW,323,3.0,13.0,93,0.00,,,0.00,,2013-03-24 12:42:00,
2013-03-24 07:52:00,25.0,23.0,30.08,NNW,329,7.0,14.0,93,0.00,,,0.00,,2013-03-24 12:52:00,
2013-03-24 08:02:00,25.0,23.0,30.08,NNW,333,10.0,16.0,93,0.00,,,0.00,,2013-03-24 13:02:00,
2013-03-24 08:12:00,25.0,23.0,30.08,NNW,333,10.0,16.0,93,0.00,,,0.00,,2013-03-24 13:12:00,
2013-03-24 08:22:00,24.0,22.0,30.08,NW,309,13.0,20.0,92,0.00,,,0.00,,2013-03-24 13:22:00,
2013-03-24 08:32:00,24.0,22.0,30.08,NW,309,13.0,20.0,92,0.00,,,0.00,,2013-03-24 13:32:00,
2013-03-24 08:42:00,24.0,22.0,30.08,NW,309,13.0,20.0,92,0.00,,,0.00,,2013-03-24 13:42:00,
2013-03-24 08:52:00,25.0,23.0,30.08,WNW,302,8.0,21.0,92,0.00,,,0.00,,2013-03-24 13:52:00,
2013-03-24 09:02:00,24.0,22.0,30.09,WNW,296,10.0,18.0,92,0.00,,,0.00,,2013-03-24 14:02:00,
2013-03-24 09:12:00,24.0,22.0,30.09,WNW,296,10.0,18.0,92,0.00,,,0.00,,2013-03-24 14:12:00,
2013-03-24 09:22:00,24.0,22.0,30.09,WNW,299,11.0,24.0,91,0.00,,,0.00,,2013-03-24 14:22:00,
2013-03-24 09:32:00,24.0,22.0,30.08,NW,320,8.0,17.0,91,0.00,,,0.00,,2013-03-24 14:32:00,
2013-03-24 09:42:00,24.0,22.0,30.08,NW,320,8.0,17.0,91,0.00,,,0.00,,2013-03-24 14:42:00,
2013-03-24 09:52:00,24.0,22.0,30.08,NW,309,9.0,18.0,91,0.00,,,0.00,,2013-03-24 14:52:00,
2013-03-24 10:02:00,24.0,22.0,30.09,NNW,331,7.0,23.0,91,0.00,,,0.00,,2013-03-24 15:02:00,
2013-03-24 10:12:00,24.0,22.0,30.09,NNW,331,7.0,23.0,91,0.00,,,0.00,,2013-03-24 15:12:00,
2013-03-24 10:22:00,24.0,22.0,30.09,NW,306,11.0,23.0,90,0.00,,,0.00,,2013-03-24 15:22:00,
2013-03-24 10:33:00,24.0,22.0,30.09,NW,306,9.0,19.0,90,0.00,,,0.00,,2013-03-24 15:33:00,
2013-03-24 10:43:00,24.0,22.0,30.09,NW,306,9.0,19.0,90,0.00,,,0.00,,2013-03-24 15:43:00,
2013-03-24 10:53:00,24.0,22.0,30.09,WNW,302,9.0,18.0,90,0.00,,,0.00,,2013-03-24 15:53:00,
2013-03-24 11:03:00,24.0,21.0,30.09,West,280,9.0,17.0,89,0.00,,,0.00,,2013-03-24 16:03:00,
2013-03-24 11:12:00,24.0,21.0,30.09,West,280,9.0,17.0,89,0.00,,,0.00,,2013-03-24 16:12:00,
2013-03-24 11:23:00,24.0,21.0,30.09,West,280,9.0,17.0,89,0.00,,,0.00,,2013-03-24 16:23:00,
2013-03-24 11:33:00,24.0,21.0,30.09,NW,313,11.0,23.0,87,0.00,,,0.00,,2013-03-24 16:33:00,
2013-03-24 11:42:00,24.0,21.0,30.09,NW,313,11.0,23.0,87,0.00,,,0.00,,2013-03-24 16:42:00,
2013-03-24 11:52:00,24.0,20.0,30.09,West,273,13.0,22.0,86,0.00,,,0.00,,2013-03-24 16:52:00,
2013-03-24 12:02:00,24.0,20.0,30.09,NW,306,10.0,22.0,86,0.00,,,0.00,,2013-03-24 17:02:00,
2013-03-24 12:12:00,24.0,20.0,30.09,NW,306,10.0,22.0,86,0.00,,,0.00,,2013-03-24 17:12:00,
2013-03-24 12:23:00,24.0,20.0,30.09,NW,304,9.0,19.0,86,0.00,,,0.00,,2013-03-24 17:23:00,
2013-03-24 12:32:00,24.0,20.0,30.09,WNW,293,12.0,22.0,84,0.00,,,0.00,,2013-03-24 17:32:00,
2013-03-24 12:42:00,24.0,20.0,30.09,WNW,293,12.0,22.0,84,0.00,,,0.00,,2013-03-24 17:42:00,
2013-03-24 12:52:00,25.0,20.0,30.09,WNW,294,12.0,22.0,82,0.00,,,0.00,,2013-03-24 17:52:00,
2013-03-24 13:02:00,26.0,21.0,30.09,NW,319,12.0,22.0,80,0.00,,,0.00,,2013-03-24 18:02:00,
2013-03-24 13:12:00,26.0,21.0,30.09,NW,319,12.0,22.0,80,0.00,,,0.00,,2013-03-24 18:12:00,
2013-03-24 13:22:00,26.0,20.0,30.08,NW,310,15.0,26.0,79,0.00,,,0.00,,2013-03-24 18:22:00,
2013-03-24 13:32:00,25.0,19.0,30.08,WNW,298,15.0,26.0,77,0.00,,,0.00,,2013-03-24 18:32:00,
2013-03-24 13:43:00,25.0,19.0,30.08,WNW,298,15.0,26.0,77,0.00,,,0.00,,2013-03-24 18:43:00,
2013-03-24 13:52:00,26.0,20.0,30.08,WNW,296,13.0,25.0,77,0.00,,,0.00,,2013-03-24 18:52:00,
2013-03-24 14:02:00,26.0,19.0,30.08,NW,311,13.0,22.0,76,0.00,,,0.00,,2013-03-24 19:02:00,
2013-03-24 14:12:00,26.0,19.0,30.08,NW,311,13.0,22.0,76,0.00,,,0.00,,2013-03-24 19:12:00,
2013-03-24 14:22:00,26.0,19.0,30.07,WNW,291,10.0,24.0,76,0.00,,,0.00,,2013-03-24 19:22:00,
2013-03-24 14:32:00,26.0,19.0,30.07,WNW,297,10.0,24.0,75,0.00,,,0.00,,2013-03-24 19:32:00,
2013-03-24 14:42:00,26.0,19.0,30.07,WNW,297,10.0,24.0,75,0.00,,,0.00,,2013-03-24 19:42:00,
2013-03-24 14:52:00,26.0,19.0,30.07,WNW,291,16.0,25.0,76,0.00,,,0.00,,2013-03-24 19:52:00,
2013-03-24 15:02:00,26.0,19.0,30.07,WNW,291,16.0,25.0,76,0.00,,,0.00,,2013-03-24 20:02:00,
2013-03-24 15:12:00,26.0,19.0,30.07,WNW,291,16.0,25.0,76,0.00,,,0.00,,2013-03-24 20:12:00,
2013-03-24 15:22:00,27.0,20.0,30.07,WNW,285,11.0,20.0,75,0.00,,,0.00,,2013-03-24 20:22:00,
2013-03-24 15:32:00,26.0,19.0,30.06,NW,309,13.0,22.0,75,0.00,,,0.00,,2013-03-24 20:32:00,
2013-03-24 15:42:00,26.0,19.0,30.06,NW,309,13.0,22.0,75,0.00,,,0.00,,2013-03-24 20:42:00,
2013-03-24 15:52:00,26.0,19.0,30.06,WNW,300,13.0,20.0,76,0.00,,,0.00,,2013-03-24 20:52:00,
2013-03-24 16:02:00,26.0,19.0,30.06,West,277,15.0,24.0,76,0.00,,,0.00,,2013-03-24 21:02:00,
2013-03-24 16:12:00,26.0,19.0,30.06,West,277,15.0,24.0,76,0.00,,,0.00,,2013-03-24 21:12:00,
2013-03-24 16:22:00,26.0,19.0,30.06,WNW,288,12.0,25.0,76,0.00,,,0.00,,2013-03-24 21:22:00,
2013-03-24 16:33:00,26.0,19.0,30.06,North,9,14.0,22.0,76,0.00,,,0.00,,2013-03-24 21:33:00,
2013-03-24 16:43:00,26.0,19.0,30.06,North,9,14.0,22.0,76,0.00,,,0.00,,2013-03-24 21:43:00,
2013-03-24 16:52:00,26.0,19.0,30.06,WNW,300,12.0,25.0,76,0.00,,,0.00,,2013-03-24 21:52:00,
2013-03-24 17:03:00,26.0,20.0,30.06,NW,314,9.0,21.0,77,0.00,,,0.00,,2013-03-24 22:03:00,
2013-03-24 17:13:00,26.0,20.0,30.06,NW,314,9.0,21.0,77,0.00,,,0.00,,2013-03-24 22:13:00,
2013-03-24 17:23:00,26.0,19.0,30.06,West,281,15.0,26.0,75,0.00,,,0.00,,2013-03-24 22:23:00,
2013-03-24 17:33:00,26.0,19.0,30.07,WNW,302,13.0,28.0,76,0.00,,,0.00,,2013-03-24 22:33:00,
2013-03-24 17:43:00,26.0,19.0,30.07,WNW,302,13.0,28.0,76,0.00,,,0.00,,2013-03-24 22:43:00,
2013-03-24 17:52:00,26.0,19.0,30.07,WNW,296,13.0,27.0,75,0.00,,,0.00,,2013-03-24 22:52:00,
2013-03-24 18:03:00,26.0,19.0,30.07,WNW,290,11.0,26.0,73,0.00,,,0.00,,2013-03-24 23:03:00,
2013-03-24 18:12:00,26.0,19.0,30.07,WNW,290,11.0,26.0,73,0.00,,,0.00,,2013-03-24 23:12:00,
2013-03-24 18:22:00,26.0,19.0,30.07,West,277,11.0,24.0,75,0.00,,,0.00,,2013-03-24 23:22:00,
2013-03-24 18:32:00,26.0,19.0,30.08,WNW,292,13.0,25.0,74,0.00,,,0.00,,2013-03-24 23:32:00,
2013-03-24 18:42:00,26.0,19.0,30.08,WNW,292,13.0,25.0,74,0.00,,,0.00,,2013-03-24 23:42:00,
2013-03-24 18:52:00,26.0,19.0,30.09,WNW,293,7.0,19.0,75,0.00,,,0.00,,2013-03-24 23:52:00,
2013-03-24 19:02:00,26.0,19.0,30.09,WNW,294,13.0,20.0,76,0.00,,,0.00,,2013-03-25 00:02:00,
2013-03-24 19:12:00,26.0,19.0,30.09,WNW,294,13.0,20.0,76,0.00,,,0.00,,2013-03-25 00:12:00,
2013-03-24 19:22:00,26.0,19.0,30.09,WNW,289,11.0,23.0,76,0.00,,,0.00,,2013-03-25 00:22:00,
2013-03-24 19:32:00,26.0,20.0,30.10,WNW,302,9.0,18.0,79,0.00,,,0.00,,2013-03-25 00:32:00,
2013-03-24 19:42:00,26.0,20.0,30.10,WNW,302,9.0,18.0,79,0.00,,,0.00,,2013-03-25 00:42:00,
2013-03-24 19:52:00,26.0,20.0,30.10,NW,315,11.0,22.0,79,0.00,,,0.00,,2013-03-25 00:52:00,
2013-03-24 20:02:00,25.0,20.0,30.10,WNW,300,9.0,16.0,81,0.00,,,0.00,,2013-03-25 01:02:00,
2013-03-24 20:12:00,25.0,20.0,30.10,WNW,300,9.0,16.0,81,0.00,,,0.00,,2013-03-25 01:12:00,
2013-03-24 20:22:00,25.0,20.0,30.10,WNW,296,7.0,15.0,81,0.00,,,0.00,,2013-03-25 01:22:00,
2013-03-24 20:32:00,25.0,20.0,30.10,WNW,282,10.0,21.0,80,0.00,,,0.00,,2013-03-25 01:32:00,
2013-03-24 20:42:00,25.0,20.0,30.10,WNW,282,10.0,21.0,80,0.00,,,0.00,,2013-03-25 01:42:00,
2013-03-24 20:52:00,25.0,20.0,30.11,WNW,303,9.0,15.0,81,0.00,,,0.00,,2013-03-25 01:52:00,
2013-03-24 21:02:00,25.0,21.0,30.11,WNW,285,12.0,19.0,83,0.00,,,0.00,,2013-03-25 02:02:00,
2013-03-24 21:12:00,25.0,21.0,30.11,WNW,285,12.0,19.0,83,0.00,,,0.00,,2013-03-25 02:12:00,
2013-03-24 21:22:00,25.0,21.0,30.11,WNW,294,10.0,18.0,85,0.00,,,0.00,,2013-03-25 02:22:00,
2013-03-24 21:42:00,24.0,20.0,30.11,WNW,300,7.0,16.0,85,0.00,,,0.00,,2013-03-25 02:42:00,
2013-03-24 21:52:00,25.0,21.0,30.11,WNW,293,9.0,16.0,86,0.00,,,0.00,,2013-03-25 02:52:00,
2013-03-24 22:02:00,25.0,21.0,30.11,WNW,295,9.0,16.0,86,0.00,,,0.00,,2013-03-25 03:02:00,
2013-03-24 22:13:00,25.0,21.0,30.11,WNW,295,9.0,16.0,86,0.00,,,0.00,,2013-03-25 03:13:00,
2013-03-24 22:22:00,25.0,21.0,30.12,WNW,294,10.0,16.0,86,0.00,,,0.00,,2013-03-25 03:22:00,
2013-03-24 22:33:00,25.0,21.0,30.12,West,275,11.0,18.0,86,0.00,,,0.00,,2013-03-25 03:33:00,
2013-03-24 22:42:00,25.0,21.0,30.12,West,275,11.0,18.0,86,0.00,,,0.00,,2013-03-25 03:42:00,
2013-03-24 22:52:00,25.0,22.0,30.12,WNW,296,11.0,16.0,87,0.00,,,0.00,,2013-03-25 03:52:00,
2013-03-24 23:02:00,24.0,21.0,30.11,West,278,11.0,21.0,89,0.00,,,0.00,,2013-03-25 04:02:00,
2013-03-24 23:12:00,24.0,21.0,30.11,West,278,11.0,21.0,89,0.00,,,0.00,,2013-03-25 04:12:00,
2013-03-24 23:22:00,24.0,22.0,30.12,WNW,287,11.0,17.0,90,0.00,,,0.00,,2013-03-25 04:22:00,
2013-03-24 23:33:00,24.0,22.0,30.11,WNW,287,7.0,14.0,90,0.00,,,0.00,,2013-03-25 04:33:00,
2013-03-24 23:43:00,24.0,22.0,30.11,WNW,287,7.0,14.0,90,0.00,,,0.00,,2013-03-25 04:43:00,
2013-03-24 23:52:00,25.0,22.0,30.11,WNW,282,8.0,18.0,90,0.00,,,0.00,,2013-03-25 04:52:00,